Location: Alpha Ridge Park
(39.3209°N, 76.9128°W)
Time: 04:50:58
(UTC-04:00)

BEESAT - Visible Passes

Search period start: 29 June 2022 00:00
Search period end: 09 July 2022 00:00
Orbit: 698 x 708 km, 98.6° (Epoch: 28 June)

Date Brightness Start Highest point End Pass type
(mag) Time Alt. Az. Time Alt. Az. Time Alt. Az.
29 Jun ? 21:27:01 10° NNE 21:31:48 76° ESE 21:36:34 10° S visible
29 Jun ? 23:07:08 10° NW 23:08:51 12° WNW 23:10:36 10° W visible
30 Jun ? 22:10:13 10° N 22:14:38 39° WNW 22:19:04 10° SW visible
01 Jul ? 21:15:17 10° NNE 21:19:59 56° E 21:24:40 10° S visible
01 Jul ? 22:54:26 10° NNW 22:57:13 16° WNW 23:00:01 10° W visible
02 Jul ? 21:58:16 10° N 22:02:54 52° WNW 22:07:31 10° SSW visible
03 Jul ? 21:03:37 10° NNE 21:08:09 42° E 21:12:40 10° S visible
03 Jul ? 22:42:05 10° NNW 22:45:33 20° WNW 22:49:00 10° WSW visible
04 Jul ? 21:46:23 10° N 21:51:08 70° WNW 21:55:52 10° SSW visible
05 Jul ? 22:29:55 10° NNW 22:33:51 26° WNW 22:37:47 10° WSW visible
06 Jul ? 21:34:32 10° NNE 21:39:21 88° ESE 21:44:08 10° SSW visible
06 Jul ? 23:15:42 10° NW 23:16:18 10° WNW 23:16:54 10° WNW visible
07 Jul ? 22:17:51 10° N 22:22:08 34° WNW 22:26:25 10° SW visible
08 Jul ? 21:22:46 10° NNE 21:27:32 66° ESE 21:32:16 10° S visible
08 Jul ? 23:02:20 10° NNW 23:04:40 14° WNW 23:07:00 10° W visible
